默认 日期 大小 文件数 浏览量 最新下载 xml
shot磁力链接相关资源由用户搜索指令自动获取,结果来源于网络,本站不存储任何资料,亦不承担任何责任,请于24小时内删除,搜索到9001个磁力,显示前4000条数据,用时5ms。
    ... mkv": 4648977374, "Top.Shot.S02E03.Uphill.Battle.1080p.AMZN ... .mkv": 4298397663, "Top.Shot.S02E04.Compound.Fracture.1080p.AMZN ... .mkv": 4556441255, "Top.Shot.S02E01.Sharpshooter.Surprise.1080p.AMZN ... ": 4706492429, "Top.Shot.S02E07.Trick.Shot.Showdown.II.1080p.AMZN ...
创建时间: 2019-06-09 17:43:40 大小:51.49 GB 文件数量:13 热度:6 最近下载:2022-04-13 06:25:53
    {"Shot At Home Vol. 29 - xXx - Amateurs.wmv": 723225336}
创建时间: 2019-06-09 17:44:22 大小:689.72 MB 文件数量:1 热度:5 最近下载:2023-01-19 06:20:34
    {"WWW.FOXM.TO.jpg": 123571, "Shot.Caller.2017.1080p.BluRay.x264-FOXM.mp4": 1934835127, "Shot.Caller.2017.1080p.BluRay.x264-FOXM.smi": 130982}
创建时间: 2019-06-09 17:45:43 大小:1.8 GB 文件数量:3 热度:4 最近下载:2022-04-13 05:43:30
    ... .SceneTime.com.txt": 85, "Double.Shot.at.Love.S01E09.Pack.You ... .x264-CRiMSON.mkv": 403410080, "Double.Shot.at.Love.S01E09.Pack.You ...
创建时间: 2019-06-09 18:25:34 大小:385.08 MB 文件数量:9 热度:3 最近下载:2021-06-17 16:25:58
    ... .mkv": 1940213474, "Top.Shot.S04E01.Sweating.Bullets.720p.AMZN ... .mkv": 1953017790, "Top.Shot.S04E03.Shotgun.Showdown.720p.AMZN ... .mkv": 1956060436, "Top.Shot.S04E04.Crossbow.Crossfire.720p.AMZN ... mkv": 1954427819, "Top.Shot.S04E07.Trick.Shot.Shoot.Off.720p.AMZN ...
创建时间: 2019-06-09 19:52:17 大小:21.75 GB 文件数量:13 热度:6 最近下载:2024-09-04 14:53:02
    {"Vids": {"vid (1).mp4": 22289418, "vid (2).mp4": 24678063, "vid (3).mp4": 11597579, "vid (4).mp4": 29542827, "vid (5).mp4": 24833823, "vid (6).mp4": 2195979, "vid (7).mp4": 31498709, "vid (8).mp4": 6617009, "vid (9).mp4": 47498475, "vid (10).mp4": 4863879 ...
创建时间: 2019-06-09 20:34:15 大小:464.35 MB 文件数量:275 热度:7 最近下载:2024-09-28 00:28:01
    {"RARBG.com.txt": 34, "whitney.cummings.money.shot.sd-guffaw.nfo": 6997, "Whitney.Cummings.Money.Shot.2010.DVDRip.x264-GUFFAW.mkv": 280421268}
创建时间: 2019-06-09 21:29:51 大小:267.44 MB 文件数量:3 热度:5 最近下载:2025-08-29 23:09:03
    {"Sai.de.Baixo.O.Filme.2019.1080p.WEB-DL.H264.AC3-SHOT.mkv": 3492367188, "Sai.de.Baixo.O.Filme.2019.1080p.WEB-DL.H264.AC3-SHOT.txt": 5504}
创建时间: 2019-06-10 00:13:01 大小:3.25 GB 文件数量:2 热度:10 最近下载:2025-09-19 21:15:05
    {"RARBG.txt": 30, "RARBG_DO_NOT_MIRROR.exe": 99, "Double.Shot.at.Love.S01E10.DJ.to.PJs.720p.HDTV.x264-CRiMSON.mkv": 1150520285, "double.shot.at.love.s01e10.dj.to.pjs.720p.hdtv.x264-crimson.nfo": 395}
创建时间: 2019-06-10 02:36:30 大小:1.07 GB 文件数量:4 热度:4 最近下载:2022-04-13 07:19:44
    {"RARBG.txt": 30, "RARBG_DO_NOT_MIRROR.exe": 99, "double.shot.at.love.s01e10.1080p.web.x264-tbs.mkv": 1643683018, "double.shot.at.love.s01e10.1080p.web.x264-tbs.nfo": 57}
创建时间: 2019-06-10 03:07:44 大小:1.53 GB 文件数量:4 热度:4 最近下载:2022-04-12 05:50:19
    ... .torrenting.org.txt": 86, "Double.Shot.at.Love.S01E10.DJ.to ... .x264-CRiMSON.mkv": 1150520285, "Double.Shot.at.Love.S01E10.DJ.to ...
创建时间: 2019-06-10 03:35:31 大小:1.07 GB 文件数量:8 热度:3 最近下载:2022-04-11 05:59:54
    ... .txt": 31, "Top.Shot.S01E01.The.Long.Shot.720p.AMZN.WEB-DL ... AJP69.mkv": 1971028066, "Top.Shot.S01E10.Season.Finale.720p.AMZN ... AJP69.mkv": 1956488670, "Top.Shot.S01E03.Archer.Enemies.720p.AMZN ... .mkv": 1955948843, "Top.Shot.S01E07.Trick.Shot.Showdown.720p.AMZN.WEB ...
创建时间: 2019-06-10 04:56:13 大小:18.32 GB 文件数量:11 热度:3 最近下载:2022-04-13 06:07:34
    {"newjo1.jpg": 192938, "7437 (1).jpg": 4094697, "7437 (2).jpg": 3932513, "7437 (3).jpg": 3641296, "7437 (4).jpg": 3253967, "7437 (5).jpg": 3658588, "7437 (6).jpg": 3893376, "7437 (7).jpg": 3947158, "7437 (8).jpg": 3016189, "7437 (9).jpg": 3480543, "7437 ( ...
创建时间: 2019-06-10 05:07:35 大小:257.06 MB 文件数量:70 热度:4 最近下载:2025-08-09 10:52:02
    {"cover.jpg": 206031, "04 Pressure Off.mp3": 6920982, "06 Devastate It.mp3": 10740780, "03 In Hate Ecstasy.mp3": 8309266, "02 Contempt Reached.mp3": 9347027, "01 In Front Of Shots.mp3": 3435199, "05 Escape Not In Place.mp3": 7928145}
创建时间: 2019-06-10 14:47:44 大小:44.72 MB 文件数量:7 热度:11 最近下载:2025-03-20 07:01:49
    {"Screens": {"screen0001.png": 364932, "screen0002.png": 269215, "screen0003.png": 274054, "screen0004.png": 299864}, "Double.Shot.at.Love.S01E10.DJ.to.PJs.480p.x264-mSD.mkv": 255267339, "Double.Shot.at.Love.S01E10.DJ.to.PJs.480p.x264-mSD.nfo": 1213}
创建时间: 2019-06-10 18:47:15 大小:244.6 MB 文件数量:6 热度:4 最近下载:2022-04-13 07:02:16
    ... srt": 65209, "Top.Shot.S04E07.Trick.Shot.Shoot.Off.WEBRip.x264 ... .mp4": 439489729, "Top.Shot.S04E01.Sweating.Bullets.WEBRip.x264 ... .mp4": 437969567, "Top.Shot.S04E04.Crossbow.Crossfire.WEBRip.x264 ... mp4": 438659418, "Top.Shot.S04E07.Trick.Shot.Shoot.Off.WEBRip.x264 ...
创建时间: 2019-06-10 19:06:14 大小:4.9 GB 文件数量:25 热度:4 最近下载:2022-04-13 06:41:03
    ... x264-crimson.r00": 50000000, "double.shot.at.love.s01e09.pack.you ... x264-crimson.r01": 50000000, "double.shot.at.love.s01e09.pack.you ... x264-crimson.r02": 50000000, "double.shot.at.love.s01e09.pack.you ... -crimson.r03": 50000000, "double.shot.at.love.s01e09.pack.you ...
创建时间: 2019-06-11 01:09:32 大小:1.14 GB 文件数量:27 热度:3 最近下载:2021-06-17 16:25:58
    {"SeeHD联盟-申明.nfo": 466, "本站新帖 - SeeHD看高清联盟 - Powered by phpwind.htm": 77290, "An Accidental Shot of Love 2015 1080p WEB-DL x264 AAC-SeeHD.mkv": 2641571897}
创建时间: 2019-06-11 01:21:02 大小:2.46 GB 文件数量:3 热度:20 最近下载:2025-03-15 12:28:03
    ... , "the.last.24.s01e13.kill.shot.webrip.x264-underbelly.mkv": 190931675 ... , "the.last.24.s01e13.kill.shot.webrip.x264-underbelly.nfo": 1032}
创建时间: 2019-06-11 04:11:05 大小:182.23 MB 文件数量:9 热度:12 最近下载:2025-09-19 00:46:02
    {"Screens": {"screen0001.png": 10667152, "screen0002.png": 8277195, "screen0003.png": 9559454}, "www.xBay.me.txt": 48, "Double.Shot.at.Love.S01E10.1080p.HEVC.x265-MeGusta.mkv": 764949063, "Double.Shot.at.Love.S01E10.1080p.HEVC.x265-MeGusta.nfo": 1149}
创建时间: 2019-06-11 11:17:50 大小:756.7 MB 文件数量:6 热度:5 最近下载:2025-01-19 19:51:02